Temp_Advection
nan nan nan nan nan nan nan nan nan nan nan nan nan nan nan nan nan nan nan nan nan nan nan nan nan nan nan nan nan nan nan nan nan nan nan nan nan nan nan nan nan nan nan nan nan nan nan nan nan nan nan nan nan nan
nan -0 -0 0 0 0 -0 0 0 0 0 1 1 1 1 1 0 0 0 1 0 -1 -0 0 0 0 -0 -0 -1 -0 -0 -0 -0 -0 0 0 -0 -0 -0 0 -0 -0 -0 -0 -0 -0 -0 -0 -0 -0 0 -0 -0 nan
nan -0 -0 -0 -0 0 0 0 0 1 1 1 1 1 1 1 1 0 0 1 -0 -1 0 0 0 0 0 0 -0 -0 -0 -0 -0 -0 -0 0 0 -0 -0 0 -0 -0 -0 -0 0 -0 -0 -0 -0 0 0 -0 -0 nan
nan 0 0 0 -0 -0 0 0 0 0 1 1 0 1 1 1 1 0 0 0 0 -1 -0 0 0 0 0 -0 -0 -0 -0 -0 -0 -0 -0 -0 0 0 -0 -0 -0 -0 -0 -0 -0 -0 -0 -0 0 0 0 0 -0 nan
nan 0 0 0 -0 -0 0 -0 -0 0 0 0 0 1 1 1 0 0 0 0 0 -0 -0 1 0 0 0 -0 -0 -0 -0 -0 -0 -0 -0 -0 -0 0 -0 -0 -0 -0 -0 -0 -0 -0 -0 -0 -0 0 0 -0 -0 nan
nan 0 0 0 -0 -0 0 -0 -0 0 0 0 0 0 1 1 1 0 -0 0 1 1 -1 -0 1 0 0 0 -0 -0 -0 -0 -0 -0 -0 -0 0 -0 -0 0 -0 -0 0 0 0 0 -0 -0 0 0 -0 -0 -0 nan
nan -0 -0 0 0 -0 -0 -0 -0 0 0 0 0 0 1 1 0 -0 0 1 1 0 -0 -0 0 0 0 0 -0 0 0 0 -0 -0 -0 -0 0 -0 -0 0 -0 -0 0 0 -0 -0 -0 -0 -0 0 0 -0 -0 nan
nan 0 0 0 0 -0 0 0 -0 0 0 0 0 0 0 0 0 -0 0 0 0 0 -1 -0 0 0 0 -0 0 0 0 0 -0 -0 -0 -0 -0 -0 -0 0 -0 -0 -0 0 0 -0 -0 -0 -0 0 0 0 -0 nan
nan -0 0 0 -0 -0 -0 0 0 0 0 0 0 0 1 -0 -0 0 0 0 0 -0 -0 -0 0 0 0 0 0 0 -0 -0 0 -0 -0 -0 -0 0 0 0 0 -0 -0 -0 0 0 0 0 0 0 0 0 0 nan
nan -0 0 0 -0 -0 -0 0 0 0 0 0 1 0 -0 -0 0 0 0 -0 -0 -0 -0 -0 0 0 0 0 -0 0 -0 -0 0 -0 0 -0 -0 0 0 0 0 0 0 0 -0 0 0 0 0 0 0 -0 -0 nan
nan -0 -0 0 0 0 -0 0 0 0 0 -0 -0 -0 1 0 0 -0 -0 -0 -0 -0 0 0 0 0 -0 -0 -0 0 0 -0 0 -0 -0 0 0 0 0 1 0 0 0 0 0 0 0 0 0 0 -0 -0 -0 nan
nan -0 -0 0 0 0 0 0 0 0 0 -0 -0 -0 -0 0 0 0 0 0 -0 -0 -0 0 0 0 0 -0 -0 -0 -0 -0 -0 0 -0 0 0 1 0 0 0 0 0 0 0 0 0 0 0 0 -0 -0 -0 nan
nan 0 -0 -0 0 0 0 0 0 0 0 1 -0 -0 -0 -0 0 0 0 0 -0 -0 -0 -0 0 0 0 -0 -0 0 -0 -0 -0 -0 0 0 -0 0 0 0 0 0 0 0 0 0 0 0 0 0 -0 -0 -0 nan
nan 0 0 0 0 0 0 0 0 0 0 -0 -0 -0 0 0 -0 0 -0 -0 0 -0 -0 -1 0 0 -0 -0 -0 0 -0 -0 -0 -0 0 0 -0 -0 0 0 0 0 0 0 0 0 0 0 0 -0 0 -0 -0 nan
nan 0 0 0 0 0 0 0 0 0 -0 -0 -0 -0 0 -0 -0 -0 -0 0 0 0 -0 -0 -0 -0 -0 0 -0 -0 -0 0 0 0 0 -1 -1 -0 -0 0 0 0 0 0 0 0 0 0 -0 -0 -0 -0 -0 nan
nan -0 0 0 0 0 0 0 0 0 -0 -0 -0 0 -0 -0 0 0 -0 0 0 0 1 -0 -1 -0 0 0 0 -0 0 1 0 -0 -0 0 -0 -0 0 0 0 0 0 0 -0 -0 -0 -0 -0 -0 -0 -0 -0 nan
nan -0 -0 0 0 0 0 0 0 -0 -0 -0 -0 0 -0 -0 -0 -0 -0 0 0 -1 -0 0 -0 -0 -0 0 -0 0 1 0 -0 -0 -0 0 0 0 0 0 0 0 0 0 0 0 0 0 0 0 0 0 -0 nan
nan -0 -0 -0 -0 -0 0 0 0 -0 -0 -0 0 0 0 0 0 0 0 0 0 0 -1 -0 -0 -0 0 0 0 -0 0 -0 -0 0 0 0 1 0 0 0 0 0 0 0 0 0 0 0 0 0 0 0 0 nan
nan -0 -0 -0 0 0 -0 0 -0 -0 0 0 -0 -0 0 0 0 0 0 0 0 0 -0 -0 -1 -0 -0 -1 -0 -0 -0 -0 -0 0 0 0 0 0 0 0 0 0 0 0 0 0 0 0 0 0 -0 0 0 nan
nan 0 0 0 0 -0 -0 -0 0 -0 -0 -0 0 0 0 0 0 0 0 0 0 0 0 -0 -0 -0 -0 0 -0 -0 0 0 -0 -1 -0 0 0 0 0 0 0 0 0 0 0 0 0 0 0 0 0 0 0 nan
nan 0 1 0 0 -0 -0 -0 -0 0 -0 0 0 0 0 0 0 0 -0 -0 -0 0 0 -1 -1 -0 0 0 0 0 0 0 0 0 0 0 0 0 0 0 0 0 0 0 0 0 0 0 0 0 0 0 0 nan
nan 0 -0 0 0 -0 -0 0 -0 -0 0 -0 0 0 0 -0 0 0 -0 -0 -0 -0 -0 -0 0 0 0 0 0 0 0 0 0 0 0 0 0 0 0 0 0 0 0 0 0 0 0 0 0 0 0 0 0 nan
nan -0 0 0 -0 -0 -0 0 0 -0 0 0 0 0 -0 -0 0 0 -0 -0 -0 0 0 0 0 0 0 0 0 0 0 0 0 0 0 0 0 0 0 0 0 0 0 0 0 0 0 0 0 0 0 0 0 nan
nan 0 -0 0 0 -0 -0 0 0 0 -0 0 0 0 0 0 0 0 0 -0 -0 0 0 0 0 0 0 0 0 0 0 0 0 -0 0 0 0 0 0 0 0 0 0 0 0 0 0 0 0 0 0 0 0 nan
nan 0 0 0 0 0 -0 -0 -0 0 0 0 -0 -0 -0 0 -0 0 -0 -0 -0 0 0 0 0 0 0 0 0 0 0 0 0 0 -0 0 0 -0 -0 -0 0 0 0 0 0 0 0 0 0 0 0 0 0 nan
nan 0 0 -0 0 -0 -0 -0 -0 0 0 0 -0 0 0 -0 -0 -0 -0 -0 -0 -0 0 0 0 0 0 0 0 0 0 0 0 0 -0 0 0 0 0 0 0 0 0 0 0 0 0 0 0 0 0 0 -0 nan
nan -0 -0 0 -0 -0 -0 0 -0 -0 0 -0 -0 0 -0 -0 -0 -0 -0 -0 -0 -0 0 0 0 0 0 0 0 0 0 0 0 0 0 0 0 0 0 0 0 0 0 0 0 0 0 0 0 0 0 -0 -0 nan
nan -0 -0 0 0 0 -0 0 0 -0 -0 -0 -0 0 -0 -0 -0 -0 -0 0 0 0 0 0 0 0 0 0 0 0 0 0 0 0 0 0 0 0 0 0 0 0 0 0 0 0 -0 -0 -0 0 0 -0 -0 nan
nan 0 -0 -0 0 0 -0 -0 -0 -0 -0 0 -0 -0 -0 -0 -0 0 0 0 0 0 0 0 0 0 0 0 0 0 0 0 0 0 0 0 0 0 0 0 0 0 0 0 0 -0 -0 -0 -0 -0 -0 -0 -0 nan
nan 0 0 -0 0 0 0 0 0 0 0 0 -0 -0 0 0 0 0 0 0 -0 0 0 0 0 0 0 0 0 0 0 0 0 0 0 0 0 0 0 0 0 0 0 -0 -0 -0 -0 -0 -0 -0 -0 -0 -0 nan
nan 0 0 0 0 0 0 0 0 0 0 0 0 0 0 0 0 0 0 0 0 0 0 0 0 0 1 0 0 0 0 0 0 0 0 0 0 0 0 0 0 0 -0 -0 -0 -0 -0 -0 -0 -0 -0 -0 -0 nan
nan 0 0 0 0 0 0 0 0 0 0 0 0 0 0 0 0 0 0 0 0 0 0 0 0 0 1 0 0 0 0 0 0 0 0 0 0 0 0 -0 -0 -0 -0 -0 -0 -0 -0 -0 -0 -0 -0 -0 -0 nan
nan nan nan nan nan nan nan nan nan nan nan nan nan nan nan nan nan nan nan nan nan nan nan nan nan nan nan nan nan nan nan nan nan nan nan nan nan nan nan nan nan nan nan nan nan nan nan nan nan nan nan nan nan nan
Wind_Speed
28 27 27 29 30 33 31 29 29 29 33 34 33 30 28 26 22 20 19 16 13 9 10 10 10 11 9 5 3 2 3 4 4 3 1 1 1 2 1 2 2 3 3 3 2 3 1 18 3 3 6 7 8 10
30 29 28 32 30 31 30 28 25 26 29 31 29 26 24 22 19 16 20 17 15 11 14 15 14 11 9 7 8 3 4 3 2 3 1 1 2 2 3 1 3 3 3 2 5 2 5 11 14 11 8 10 7 8
27 30 28 30 32 30 27 24 23 25 28 29 27 25 22 19 16 15 22 20 19 24 17 12 10 6 7 4 6 5 3 3 3 2 4 2 1 0 2 2 2 2 5 3 1 3 6 8 9 9 10 11 8 6
27 26 26 27 30 30 26 24 24 25 26 28 27 24 22 19 16 14 23 21 17 12 6 5 12 12 11 10 11 11 9 5 2 1 2 2 1 2 1 2 3 2 2 3 3 6 7 8 7 9 11 9 8 7
27 24 26 31 30 26 24 24 24 25 23 25 26 24 21 18 17 16 21 16 15 6 6 9 13 9 9 9 8 8 6 4 2 2 2 1 1 1 2 1 2 3 2 0 1 9 5 6 8 6 6 8 6 4
25 27 26 29 29 25 24 24 27 25 24 23 25 25 22 20 19 21 8 9 14 24 10 3 6 7 8 8 6 4 3 2 2 1 0 1 1 1 2 2 3 4 2 4 5 6 12 14 10 6 7 7 6 4
30 32 30 28 26 24 24 25 26 23 23 22 22 23 21 19 15 6 6 13 12 10 6 4 3 4 10 9 5 3 2 1 1 0 1 1 2 2 1 2 8 8 13 15 14 16 11 9 6 7 4 5 4 4
32 31 30 28 26 26 29 29 26 24 23 22 22 22 21 16 13 13 16 14 10 8 6 3 1 4 6 4 2 3 2 1 0 1 0 0 2 2 2 9 12 13 13 7 6 5 8 9 11 7 4 1 0 1
33 32 28 26 26 26 28 28 25 25 24 23 26 26 22 14 6 12 13 10 10 7 5 3 4 3 8 4 3 3 2 2 1 1 1 2 1 1 0 11 12 12 6 13 11 9 10 10 10 6 3 2 1 2
33 30 28 26 25 25 26 26 24 23 24 28 22 7 6 9 21 16 4 2 4 4 4 3 4 3 5 4 2 3 2 1 1 1 3 1 1 3 4 9 10 10 9 14 14 10 9 9 7 4 2 1 2 3
32 30 28 27 24 23 25 26 25 22 23 7 5 5 22 14 4 3 4 3 1 3 3 3 3 4 3 3 2 1 2 0 1 2 2 1 2 6 11 13 10 8 9 8 7 6 6 5 5 3 3 3 4 4
29 27 26 27 23 21 24 25 26 22 7 6 16 17 9 3 4 4 2 2 1 2 4 6 5 4 5 2 3 2 2 2 1 1 1 2 2 13 17 14 10 6 2 4 5 5 7 7 5 4 4 4 5 4
26 27 27 26 22 21 24 25 20 12 25 18 6 4 2 3 4 3 4 1 1 5 8 7 3 4 4 2 3 1 2 3 1 2 3 3 9 18 18 14 10 7 6 5 7 7 6 6 6 5 5 6 5 4
26 28 26 24 22 22 25 22 17 18 4 4 3 4 3 1 2 3 3 3 1 4 17 14 6 3 3 2 3 4 3 1 1 1 4 3 20 23 18 14 10 9 7 6 6 8 8 7 8 8 7 4 3 2
28 26 25 22 21 20 19 18 13 7 5 4 3 3 1 2 3 1 1 1 2 14 17 9 7 3 1 3 1 1 2 1 4 4 3 9 22 24 19 15 12 10 9 8 8 10 9 9 7 5 4 2 1 1
25 26 23 22 20 17 16 14 10 5 3 3 3 2 4 1 2 1 0 1 6 20 11 3 3 3 1 3 3 4 3 4 4 3 2 15 22 20 16 13 11 9 8 10 11 10 8 7 6 4 3 3 3 3
27 26 23 21 19 18 15 15 7 3 3 3 3 4 2 0 3 2 0 3 15 13 2 3 3 5 2 2 1 3 4 3 2 2 7 16 19 18 15 13 11 10 12 12 11 10 8 6 5 4 1 2 4 6
21 26 22 20 18 17 13 4 3 3 4 3 3 6 4 3 2 3 5 7 9 8 4 2 5 2 4 4 3 3 4 4 4 6 11 15 15 14 12 11 11 12 13 12 10 8 7 6 4 2 1 3 5 7
26 25 21 18 17 9 4 2 3 3 2 2 2 3 4 4 6 6 5 5 8 6 4 3 3 2 3 5 4 4 7 7 8 13 14 14 12 12 12 12 13 13 12 11 9 7 7 6 2 2 5 7 9 10
22 21 20 19 10 3 3 3 3 2 0 1 2 0 3 4 4 4 2 2 5 3 1 1 3 2 2 1 1 1 2 8 10 15 15 15 14 13 13 13 13 13 12 11 10 8 6 4 3 5 8 11 11 13
23 22 22 14 3 4 3 3 3 3 2 1 3 4 1 2 2 1 1 2 1 2 3 5 4 3 2 2 4 3 4 7 8 8 11 18 17 14 14 14 13 12 10 10 8 6 4 3 5 8 10 11 13 15
22 24 19 11 2 3 1 3 1 4 3 2 6 3 2 2 3 2 1 3 4 10 6 5 4 5 2 4 1 4 4 7 8 8 6 10 19 20 18 16 15 12 11 9 6 5 5 7 9 10 12 13 15 15
26 16 6 3 1 2 3 7 2 4 2 5 5 1 1 2 4 4 3 4 6 9 10 9 7 7 5 3 4 5 6 6 6 6 6 10 13 14 15 15 11 9 8 6 5 6 7 8 9 12 13 15 15 17
15 4 3 4 2 1 2 4 3 3 3 3 2 1 1 2 6 2 3 4 5 5 9 10 10 9 7 6 6 5 7 8 6 8 10 14 17 16 14 12 11 9 7 6 6 7 8 9 10 12 13 15 16 16
3 3 2 1 1 1 3 3 3 2 1 2 2 1 1 4 2 1 3 3 3 5 7 8 9 8 6 7 9 9 8 6 5 8 13 12 13 14 13 11 9 7 6 5 6 7 7 10 11 11 12 14 16 17
2 3 3 6 2 3 3 2 3 4 2 2 1 3 2 2 1 4 2 2 3 2 6 6 7 5 7 7 9 10 9 9 9 8 11 11 8 4 6 7 5 5 5 5 5 7 9 9 9 10 12 13 15 17
2 4 3 5 3 2 1 1 1 2 3 4 3 3 3 2 4 3 1 1 1 2 4 8 6 2 3 9 10 10 10 11 10 8 9 11 10 8 5 3 5 6 6 6 7 7 6 6 8 10 12 15 16 17
5 7 5 7 5 4 4 2 2 4 3 5 9 2 6 7 4 2 3 2 1 2 4 7 7 6 3 4 7 10 13 13 11 9 10 12 11 11 9 8 7 7 6 5 4 4 5 7 9 12 14 15 17 18
5 7 8 4 3 4 6 7 5 5 5 7 5 3 3 4 4 4 2 2 4 4 2 3 7 8 7 8 10 12 10 10 9 9 9 10 9 8 8 7 5 4 3 2 2 4 7 10 12 14 15 16 17 17
9 14 6 5 4 4 5 7 3 5 7 8 6 4 4 4 4 5 5 6 7 7 6 3 6 10 11 12 15 15 13 10 9 6 3 6 7 6 6 4 3 2 0 2 5 8 10 12 14 15 15 15 16 17
8 12 5 6 4 4 6 7 6 6 6 6 8 6 5 4 5 8 8 8 10 9 7 5 8 11 14 14 14 14 14 12 9 6 4 4 6 6 5 5 4 1 2 5 7 9 11 12 12 11 12 14 15 16
8 8 7 3 3 4 6 6 4 4 3 5 5 6 5 5 5 5 9 11 10 10 8 5 6 10 13 12 11 11 8 8 8 6 5 5 6 7 6 4 2 2 4 6 8 9 10 9 10 11 13 14 15 16
5 6 4 4 4 4 6 5 4 2 3 3 3 5 6 5 4 7 6 13 11 8 7 7 9 11 13 13 11 9 9 10 10 10 9 8 7 6 4 2 2 4 6 7 8 7 8 9 9 11 13 14 15 15
Wind_Direction
144 139 134 130 132 133 135 137 138 136 140 146 149 149 150 157 161 169 150 153 143 104 125 129 128 134 125 135 134 166 77 11 38 62 70 3 357 345 298 40 13 54 320 10 342 55 25 356 6 56 106 87 82 69
148 143 140 134 135 135 134 131 131 136 144 146 148 149 152 152 158 163 148 147 129 115 130 121 115 120 124 117 138 102 114 110 133 94 70 90 354 352 311 103 18 57 49 21 6 74 54 36 64 79 105 118 101 104
149 145 141 140 139 139 135 135 136 137 142 147 150 148 146 144 147 151 148 137 129 113 103 109 104 128 151 136 133 116 95 102 99 76 149 150 99 190 347 75 104 92 40 88 185 96 78 68 81 85 85 97 110 107
142 140 141 140 139 135 135 133 132 136 143 148 149 144 139 136 130 136 145 143 134 114 104 92 118 111 109 117 106 95 104 103 98 71 103 130 134 11 12 48 64 2 346 100 76 112 103 86 94 120 98 94 96 107
141 143 146 148 142 135 133 132 134 137 137 143 146 144 139 134 124 128 139 136 140 111 131 128 119 126 132 114 107 98 85 75 83 92 64 221 222 77 55 42 66 15 28 36 120 154 115 126 127 124 110 105 94 83
150 153 153 144 136 138 136 134 136 134 129 129 141 147 146 136 127 124 92 105 116 117 108 101 115 108 169 165 124 107 115 80 70 89 189 299 24 66 88 83 78 63 94 145 135 151 126 129 124 129 120 108 92 67
140 135 133 133 135 134 137 139 137 137 129 124 129 148 152 151 152 79 116 136 128 114 98 89 67 121 134 133 116 141 182 131 34 83 20 0 41 60 84 132 134 99 103 110 114 120 118 142 151 156 126 109 86 68
137 136 139 137 136 138 138 136 132 130 128 127 125 128 136 140 124 95 110 121 106 90 84 101 74 121 143 126 137 147 150 159 88 60 320 42 67 74 85 131 135 131 126 114 86 109 123 136 155 157 152 142 352 18
145 141 141 136 137 135 141 142 135 131 124 124 124 118 113 99 73 109 112 108 70 79 102 93 139 161 160 132 130 121 121 50 240 76 256 109 341 172 161 147 154 159 150 148 132 134 142 155 160 168 199 259 281 109
142 143 143 140 136 134 139 147 146 132 128 123 123 92 91 105 118 115 113 78 45 53 70 93 122 113 140 144 89 116 116 149 104 263 140 95 133 170 170 167 166 177 176 173 156 155 169 168 172 175 171 127 110 95
148 149 148 143 138 135 140 144 146 138 139 106 69 75 122 127 107 77 78 59 45 30 105 109 123 120 128 106 169 170 172 260 85 239 143 256 245 186 161 149 144 138 162 184 227 240 207 203 189 176 138 115 98 91
153 150 149 143 142 137 143 144 147 150 132 111 123 115 121 81 76 83 59 95 109 167 155 134 153 97 107 114 106 168 113 22 198 156 145 278 244 166 168 166 158 153 161 172 166 171 168 165 159 146 128 109 103 93
141 145 143 142 144 140 146 144 142 135 124 113 96 91 93 33 73 153 159 233 218 177 162 149 123 133 113 108 79 123 86 215 178 55 226 227 167 168 171 171 163 168 165 158 153 154 151 150 144 136 129 124 115 100
147 144 146 148 146 144 150 147 137 142 74 65 65 73 93 128 163 184 187 189 141 164 150 137 106 110 111 108 161 95 237 187 80 357 238 217 181 175 176 174 179 178 174 168 162 156 152 149 139 131 128 126 116 91
145 147 151 153 149 147 155 160 152 136 52 69 40 94 110 241 261 281 121 22 94 148 146 107 85 125 37 93 171 148 138 258 209 229 235 179 177 178 179 180 180 176 170 163 154 152 146 139 135 131 120 102 78 52
146 145 153 154 151 147 147 147 138 121 50 68 62 68 6 349 32 77 88 92 131 149 141 98 103 60 307 135 87 201 176 227 250 225 209 168 175 180 181 177 171 174 171 161 155 152 151 149 142 130 111 82 64 28
148 143 153 154 152 148 148 139 106 68 52 68 37 26 37 294 272 360 188 156 154 155 146 112 95 200 120 43 277 176 214 219 234 199 170 176 176 176 176 180 185 181 169 165 165 164 165 157 154 155 174 297 326 335
149 150 157 156 154 148 136 90 71 74 69 58 36 15 11 47 20 85 78 143 154 178 157 191 134 103 162 175 261 233 189 186 152 147 158 170 178 181 186 190 182 173 170 168 171 177 177 174 174 216 336 326 326 326
153 152 154 151 144 111 100 104 34 70 48 78 329 333 48 83 74 93 86 167 140 147 150 151 82 185 226 217 235 195 198 185 170 161 160 167 179 188 185 178 175 171 172 175 174 174 175 185 223 322 338 327 319 317
151 151 151 146 130 76 87 86 154 108 142 177 207 73 95 88 109 81 46 63 125 128 163 146 207 219 203 282 262 252 228 197 186 170 174 177 180 185 186 180 174 171 172 172 178 186 204 232 271 305 311 311 311 310
150 155 159 158 134 58 97 153 153 165 170 171 168 161 120 156 137 90 322 228 248 240 227 222 213 221 202 299 281 272 196 199 205 215 206 190 186 183 179 172 177 179 184 186 197 197 220 271 283 293 301 305 309 313
155 167 158 161 50 7 38 170 106 150 159 161 167 197 191 200 129 89 260 212 242 234 231 234 255 214 225 322 260 172 170 188 193 203 199 195 188 182 179 181 181 181 179 180 193 221 252 280 290 296 302 307 309 311
150 143 119 115 332 323 310 160 155 164 107 174 158 163 254 216 111 140 258 231 249 242 235 230 220 208 230 246 202 181 171 182 200 203 202 183 180 174 176 178 175 186 197 212 239 260 270 281 288 294 299 303 308 314
134 99 128 167 188 299 253 189 163 147 149 164 150 179 202 129 132 205 245 247 238 241 226 216 209 208 207 203 195 182 171 165 165 155 156 167 164 162 168 180 190 194 211 236 255 267 278 287 295 300 304 309 317 323
115 155 173 181 187 277 21 20 18 78 201 231 111 295 178 138 111 236 234 265 304 240 218 209 207 217 226 208 190 177 177 183 178 165 161 171 176 175 175 182 195 213 235 256 269 277 292 301 302 307 313 318 321 324
137 190 155 188 204 180 189 150 195 188 177 224 276 100 143 93 59 246 243 352 2 352 213 212 211 227 216 204 199 189 190 187 184 181 175 175 179 191 204 201 213 232 251 263 281 298 305 307 310 315 318 321 322 322
234 248 192 188 178 162 113 233 161 123 168 174 178 174 87 154 244 248 182 316 302 352 185 186 202 267 266 202 190 183 179 171 175 190 188 187 183 182 191 211 232 244 262 280 296 305 309 315 318 321 323 325 326 326
208 190 165 182 190 201 156 152 180 216 226 174 145 175 180 194 234 173 176 241 194 132 159 182 195 194 187 199 198 190 179 178 181 182 185 190 195 204 222 233 243 253 264 283 295 312 324 329 330 329 328 328 331 333
189 179 165 159 185 203 220 202 218 199 178 178 170 214 212 194 190 190 194 201 162 160 151 209 197 193 192 182 178 179 185 188 194 190 191 199 200 202 213 214 219 235 247 266 313 333 336 334 331 332 334 336 337 337
183 172 159 162 187 220 220 211 232 215 205 201 197 180 186 196 200 208 207 198 179 182 186 194 215 205 199 189 181 181 183 184 187 185 199 220 211 204 196 196 188 180 202 330 334 338 335 334 335 336 339 338 338 339
174 177 147 182 221 216 220 216 218 226 231 231 232 233 215 215 219 220 211 206 199 193 197 211 207 206 203 199 197 193 190 198 204 197 202 192 180 176 170 162 157 160 329 337 338 335 333 333 335 338 339 340 341 341
171 184 160 170 222 202 192 196 208 219 226 220 214 207 197 199 217 221 207 202 199 195 191 193 199 201 195 193 185 185 191 193 190 184 173 164 161 153 148 144 131 355 343 338 333 332 334 339 343 344 344 344 345 345
147 158 147 140 142 182 191 188 211 231 231 237 227 206 202 208 235 211 207 193 179 165 174 172 165 167 168 170 178 180 169 165 166 162 156 151 145 140 134 108 16 351 341 339 340 343 347 350 350 350 350 350 349 348
Height
1322 1326 1329 1332 1335 1339 1346 1351 1355 1359 1364 1370 1377 1384 1390 1396 1402 1408 1412 1418 1423 1430 1442 1446 1450 1452 1457 1460 1467 1468 1470 1469 1470 1477 1475 1477 1476 1471 1472 1467 1465 1471 1469 1469 1464 1465 1467 1477 1472 1472 1482 1483 1482 1482
1326 1331 1334 1339 1343 1348 1352 1357 1360 1364 1369 1375 1381 1387 1394 1399 1405 1410 1413 1420 1424 1431 1443 1448 1451 1454 1457 1460 1462 1465 1468 1469 1472 1477 1479 1479 1479 1476 1470 1464 1468 1472 1476 1476 1480 1482 1485 1483 1482 1483 1484 1484 1485 1485
1330 1335 1340 1344 1349 1354 1358 1362 1367 1370 1375 1380 1388 1393 1397 1403 1408 1411 1415 1422 1428 1436 1446 1450 1453 1456 1458 1461 1462 1463 1467 1469 1472 1474 1475 1479 1478 1476 1473 1472 1472 1476 1476 1480 1484 1488 1487 1487 1487 1487 1487 1486 1488 1488
1335 1340 1345 1349 1354 1359 1364 1368 1372 1375 1381 1386 1392 1397 1401 1406 1410 1414 1418 1424 1429 1435 1445 1454 1455 1458 1461 1463 1463 1464 1467 1470 1473 1473 1474 1478 1479 1475 1476 1475 1476 1480 1479 1481 1487 1489 1491 1491 1491 1490 1490 1490 1490 1490
1340 1345 1349 1354 1359 1364 1368 1372 1377 1382 1386 1391 1396 1401 1405 1410 1413 1417 1422 1427 1430 1435 1443 1452 1457 1460 1463 1464 1465 1466 1469 1471 1472 1473 1475 1477 1475 1476 1477 1477 1479 1481 1482 1481 1483 1485 1488 1492 1492 1493 1493 1493 1493 1493
1345 1350 1354 1360 1365 1370 1374 1378 1383 1388 1392 1395 1400 1405 1409 1414 1418 1421 1427 1432 1433 1435 1443 1454 1460 1462 1463 1465 1467 1468 1471 1472 1473 1473 1474 1474 1474 1476 1479 1479 1484 1483 1482 1483 1484 1487 1488 1491 1492 1494 1494 1494 1494 1494
1350 1354 1360 1366 1371 1375 1380 1385 1390 1394 1397 1401 1404 1408 1413 1418 1421 1424 1428 1433 1435 1437 1442 1454 1460 1463 1464 1466 1468 1470 1472 1472 1474 1474 1474 1474 1474 1475 1478 1480 1483 1484 1484 1485 1486 1488 1491 1492 1493 1495 1496 1495 1495 1495
1356 1362 1368 1373 1377 1382 1386 1391 1395 1398 1401 1405 1409 1412 1417 1422 1426 1429 1432 1435 1437 1439 1443 1454 1462 1463 1464 1466 1469 1471 1471 1473 1474 1474 1474 1474 1475 1476 1481 1481 1483 1485 1487 1488 1489 1488 1489 1491 1495 1496 1496 1497 1496 1496
1363 1369 1374 1378 1383 1387 1391 1395 1400 1403 1407 1411 1414 1419 1423 1427 1431 1434 1437 1439 1440 1444 1446 1452 1458 1462 1464 1466 1469 1470 1471 1475 1475 1474 1474 1476 1478 1479 1480 1481 1483 1485 1486 1488 1490 1490 1491 1493 1494 1495 1496 1496 1496 1495
1368 1375 1379 1384 1388 1391 1396 1400 1405 1409 1413 1416 1420 1422 1428 1433 1435 1438 1443 1442 1443 1445 1448 1453 1455 1459 1464 1466 1468 1471 1471 1475 1477 1475 1474 1475 1478 1480 1479 1481 1483 1484 1485 1487 1489 1491 1492 1492 1493 1494 1494 1495 1495 1495
1373 1379 1384 1389 1393 1397 1401 1405 1410 1414 1417 1418 1421 1427 1433 1436 1438 1441 1443 1446 1448 1450 1451 1454 1456 1459 1463 1466 1468 1470 1474 1475 1477 1475 1475 1480 1475 1477 1479 1481 1483 1484 1486 1488 1488 1489 1490 1491 1492 1493 1493 1494 1494 1495
1378 1383 1388 1394 1398 1402 1407 1410 1414 1419 1420 1421 1424 1431 1436 1438 1440 1443 1446 1449 1449 1451 1452 1455 1458 1460 1463 1465 1467 1471 1473 1475 1478 1473 1474 1483 1473 1473 1477 1480 1482 1484 1485 1486 1487 1488 1489 1490 1491 1492 1493 1494 1494 1495
1384 1389 1394 1399 1403 1408 1411 1416 1420 1423 1424 1426 1429 1434 1437 1441 1444 1444 1451 1450 1450 1449 1451 1454 1459 1460 1464 1467 1469 1469 1475 1481 1473 1478 1478 1471 1469 1472 1475 1478 1481 1483 1485 1486 1487 1488 1489 1491 1492 1493 1494 1494 1495 1496
1390 1395 1400 1405 1409 1413 1417 1421 1424 1427 1428 1429 1432 1438 1441 1442 1442 1446 1446 1445 1445 1445 1449 1453 1456 1460 1464 1466 1469 1476 1474 1471 1474 1484 1471 1466 1466 1470 1474 1477 1480 1482 1484 1486 1488 1489 1490 1491 1492 1493 1494 1495 1496 1496
1395 1400 1405 1410 1414 1418 1422 1425 1427 1430 1431 1433 1436 1441 1442 1442 1442 1443 1443 1444 1445 1447 1451 1453 1458 1461 1465 1469 1467 1468 1470 1477 1478 1473 1465 1461 1464 1469 1473 1477 1479 1482 1484 1486 1487 1489 1490 1491 1493 1494 1495 1496 1496 1496
1400 1405 1410 1415 1418 1422 1426 1429 1432 1434 1435 1437 1441 1442 1442 1442 1442 1443 1444 1445 1445 1449 1452 1454 1459 1466 1468 1467 1470 1469 1465 1477 1468 1462 1460 1462 1465 1470 1473 1477 1479 1482 1484 1485 1487 1489 1490 1492 1493 1494 1495 1496 1496 1496
1405 1408 1414 1419 1423 1427 1430 1433 1435 1437 1439 1441 1443 1443 1444 1444 1445 1445 1444 1445 1448 1451 1454 1456 1464 1465 1463 1468 1468 1465 1462 1463 1460 1460 1461 1464 1467 1470 1474 1476 1479 1481 1483 1485 1487 1489 1490 1492 1493 1495 1495 1495 1496 1496
1409 1414 1418 1423 1426 1430 1434 1436 1438 1439 1442 1443 1443 1444 1445 1445 1445 1445 1445 1447 1450 1452 1454 1456 1455 1461 1471 1470 1470 1458 1458 1458 1459 1460 1462 1465 1469 1472 1474 1476 1478 1480 1483 1485 1487 1488 1490 1492 1493 1494 1494 1494 1494 1494
1414 1418 1423 1427 1431 1433 1437 1441 1441 1442 1444 1444 1445 1445 1445 1446 1447 1447 1447 1449 1450 1452 1454 1454 1457 1461 1461 1456 1454 1455 1456 1457 1458 1461 1463 1466 1469 1472 1473 1476 1478 1480 1482 1484 1486 1488 1490 1491 1492 1492 1493 1493 1492 1491
1420 1424 1428 1432 1435 1436 1438 1441 1443 1444 1445 1446 1446 1447 1447 1447 1448 1449 1450 1450 1451 1453 1453 1455 1455 1453 1453 1454 1454 1454 1455 1456 1458 1460 1463 1466 1468 1471 1473 1475 1477 1480 1482 1484 1486 1487 1489 1490 1491 1491 1491 1491 1490 1489
1425 1429 1433 1436 1438 1439 1441 1441 1442 1444 1445 1446 1446 1448 1448 1449 1449 1450 1451 1451 1452 1452 1452 1452 1452 1452 1453 1453 1453 1453 1454 1456 1457 1460 1461 1463 1467 1470 1473 1475 1478 1480 1481 1483 1485 1486 1488 1489 1489 1489 1489 1488 1487 1485
1427 1432 1436 1439 1441 1441 1442 1443 1444 1445 1446 1446 1447 1448 1448 1449 1448 1450 1451 1451 1450 1449 1449 1450 1451 1452 1452 1452 1452 1453 1454 1456 1458 1459 1461 1463 1465 1468 1471 1474 1477 1479 1481 1483 1485 1486 1487 1487 1487 1487 1486 1485 1483 1481
1432 1437 1440 1441 1443 1442 1444 1443 1444 1445 1446 1446 1447 1448 1448 1448 1447 1451 1451 1449 1446 1446 1447 1448 1449 1450 1451 1452 1452 1453 1455 1456 1458 1459 1461 1462 1466 1469 1472 1475 1478 1480 1482 1483 1484 1485 1485 1485 1485 1484 1483 1481 1480 1478
1436 1439 1440 1441 1443 1443 1443 1443 1444 1445 1445 1446 1447 1449 1448 1447 1448 1451 1451 1445 1443 1443 1444 1446 1447 1449 1450 1452 1453 1454 1455 1457 1458 1459 1461 1464 1466 1469 1473 1476 1478 1479 1481 1482 1482 1483 1483 1482 1482 1480 1479 1477 1476 1474
1440 1442 1442 1442 1443 1444 1444 1444 1444 1445 1447 1447 1449 1448 1446 1447 1451 1452 1448 1442 1441 1442 1443 1445 1447 1449 1450 1451 1453 1454 1456 1458 1459 1460 1463 1465 1468 1470 1472 1474 1476 1478 1479 1479 1480 1480 1480 1479 1478 1477 1476 1474 1473 1472
1441 1440 1441 1440 1442 1444 1444 1447 1448 1446 1447 1446 1445 1445 1446 1447 1451 1449 1443 1442 1442 1442 1443 1445 1447 1448 1449 1451 1452 1454 1456 1458 1460 1462 1464 1466 1469 1471 1472 1473 1475 1476 1477 1477 1478 1477 1477 1476 1475 1475 1474 1472 1471 1468
1441 1439 1438 1440 1440 1441 1442 1443 1443 1443 1446 1447 1444 1447 1448 1456 1455 1442 1441 1441 1441 1442 1442 1444 1447 1448 1449 1450 1452 1454 1456 1458 1460 1463 1464 1466 1468 1470 1472 1473 1474 1475 1475 1475 1475 1475 1475 1474 1473 1472 1471 1469 1467 1465
1434 1435 1437 1438 1439 1440 1440 1442 1443 1443 1439 1439 1441 1446 1448 1445 1443 1440 1440 1441 1441 1441 1442 1443 1445 1447 1449 1450 1452 1454 1456 1458 1460 1462 1463 1465 1467 1469 1470 1471 1472 1473 1473 1473 1473 1473 1473 1472 1471 1470 1468 1466 1464 1461
1431 1432 1434 1436 1438 1438 1437 1437 1435 1435 1436 1437 1439 1439 1438 1438 1438 1439 1440 1440 1441 1442 1443 1444 1445 1446 1448 1449 1451 1454 1456 1458 1459 1461 1462 1464 1465 1467 1468 1469 1470 1471 1472 1472 1472 1471 1471 1470 1468 1467 1465 1463 1460 1458
1427 1429 1431 1433 1435 1434 1432 1433 1433 1433 1433 1434 1435 1435 1436 1436 1437 1437 1438 1439 1440 1441 1442 1443 1444 1445 1446 1448 1451 1453 1456 1458 1460 1461 1462 1463 1465 1466 1467 1468 1469 1470 1470 1470 1470 1469 1469 1467 1466 1464 1462 1460 1458 1455
1423 1425 1427 1429 1430 1430 1430 1431 1431 1432 1432 1432 1432 1434 1434 1435 1435 1436 1437 1438 1439 1440 1441 1442 1443 1445 1446 1448 1450 1453 1455 1458 1459 1461 1462 1463 1464 1465 1467 1468 1469 1469 1470 1469 1469 1468 1467 1466 1464 1463 1461 1458 1456 1454
1423 1424 1425 1428 1428 1428 1429 1430 1430 1431 1431 1431 1431 1431 1432 1433 1433 1433 1433 1435 1436 1438 1439 1440 1441 1443 1446 1449 1451 1453 1455 1457 1459 1461 1462 1463 1465 1466 1467 1468 1469 1469 1469 1469 1468 1467 1465 1464 1462 1461 1459 1457 1454 1452
1422 1424 1425 1426 1427 1428 1429 1430 1430 1430 1429 1428 1428 1429 1429 1431 1430 1431 1430 1432 1435 1436 1438 1439 1441 1443 1446 1449 1451 1453 1455 1457 1459 1461 1462 1464 1466 1467 1468 1468 1469 1468 1468 1467 1466 1465 1464 1462 1461 1460 1457 1455 1453 1451